Weather in Rosstani

Russia / Oryol Oblast     52°20′40″N   37°31′14″E
temp.,
°C
wind,
m/s
gust,
m/s
humid.,
%
clouds,
%
prec.,
mm/h
press.,
hPa
HPBL,
m
8 may, sat
sat800:00+9sse51270100 0.0 1014268
03:00+9sse61571100 0.1 1013543
06:00+9sse81788100 2.9 1011723
09:00+9sse81791100 5.8 1009662
12:00+10sse81789100 1.6 1007943
15:00+10s91595100 6.4 1005981
18:00+11s71395100 2.8 1003994
21:00+10wsw41094100 3.1 1005491
9 may, sun
sun900:00+7w81092100 0.0 1006790
03:00+3wnw81596100 0.1 1010847
06:00+4wnw81394100 0.1 1012870
09:00+5nw71080100 0.2 10151004
12:00+7nw7966100 0.0 10161436
15:00+8nw796898 0.1 10181536
18:00+7nnw71169100 0.1 10211289
21:00+5nw35815 0.1 102383
10 may, mon
mon1000:00+4nw310835 0.0 1024181
03:00+3nnw411830 0.0 1026204
06:00+3nnw411790 0.0 1027257
09:00+9n610590 0.0 1027813
12:00+12nne810485 0.0 10271694
15:00+13nne912475 0.0 10261632
18:00+12nne813615 0.0 10251413
21:00+9nne6146385 0.0 1026538
11 may, tue
tue1100:00+8nne71664100 0.0 1025599
03:00+8ne71566100 0.0 1025586
06:00+7nne7167678 0.0 1024462
09:00+9ne71478100 0.0 1024518
12:00+11ene71289100 0.4 1024666
15:00+13e71076100 0.4 10241085
18:00+14e598189 0.1 1024999
21:00+11ene4788100 0.9 1024269
12 may, wed
wed1200:00+9ene3694100 1.9 1023246
03:00+8e3895100 2.9 1023243
06:00+8e4895100 0.3 1023298
09:00+12e56783 0.3 1022655
12:00+16ese465835 0.0 10211629
15:00+17e5656100 0.1 10201568
18:00+16e4666100 0.0 1019407
21:00+12ene4793100 0.1 1019171